This demonstration page uses our WeatherBlox Daily Observations layout. Learn more.

Left ArrowRight Arrow

Hourly Observations for October 25, 2021

Temp ( °F °C ) Dew Point ( °F °C ) Humidity (%) Winds ( mph kmh ) Pressure ( in mb ) Visibility ( mi km ) Precip ( " mm )
12:15 am 00:15 Cloudy 66 19 63 17 88 88 S 9 15 29.71 1006 10 16 N/A
12:35 am 00:35 Cloudy 66 19 63 17 88 88 SSW 7 11 29.72 1006 10 16 N/A
12:55 am 00:55 Cloudy 66 19 63 17 88 88 N N/A 29.72 1006 10 16 N/A
1:15 am 01:15 Cloudy 61 16 61 16 100 100 NNE 9 15 29.71 1006 10 16 N/A
1:35 am 01:35 Cloudy 61 16 61 16 100 100 E 3 6 29.71 1006 10 16 N/A
1:55 am 01:55 Cloudy 61 16 61 16 100 100 E 3 6 29.70 1006 7 11 N/A
2:15 am 02:15 Cloudy 61 16 61 16 100 100 NW 6 9 29.73 1007 2 2 N/A
2:35 am 02:35 Cloudy 59 15 59 15 100 100 N N/A 29.73 1007 2 3 N/A
2:55 am 02:55 Cloudy 59 15 59 15 100 100 S 3 6 29.75 1008 4 6 N/A
3:15 am 03:15 Cloudy 59 15 59 15 100 100 S 6 9 29.75 1008 5 8 N/A
3:35 am 03:35 Cloudy 61 16 61 16 100 100 S 8 13 29.73 1007 5 8 N/A
3:55 am 03:55 Cloudy 59 15 59 15 100 100 S 9 15 29.75 1008 5 8 N/A
4:15 am 04:15 Cloudy 59 15 59 15 100 100 SSE 10 17 29.71 1006 5 8 N/A
4:35 am 04:35 Cloudy 59 15 59 15 100 100 SE 15 24 29.65 1004 5 8 N/A
4:55 am 04:55 Cloudy 59 15 59 15 100 100 SSE 15 24 29.67 1005 10 16 N/A
5:15 am 05:15 Mostly Cloudy 59 15 59 15 100 100 SSE 14 22 29.70 1006 10 16 N/A
5:35 am 05:35 Mostly Cloudy 59 15 59 15 100 100 SSE 14 22 29.67 1005 10 16 N/A
5:55 am 05:55 Mostly Cloudy 57 14 57 14 100 100 SE 6 9 29.67 1005 10 16 N/A
6:15 am 06:15 Mostly Cloudy 57 14 57 14 100 100 S 8 13 29.69 1005 10 16 N/A
6:35 am 06:35 Partly Cloudy 57 14 57 14 100 100 S 10 17 29.67 1005 10 16 N/A
6:55 am 06:55 Mostly Cloudy 57 14 57 14 100 100 S 15 24 29.68 1005 10 16 N/A
7:15 am 07:15 Cloudy 57 14 57 14 100 100 S 14 22 29.67 1005 10 16 N/A
7:35 am 07:35 Cloudy 57 14 57 14 100 100 S 13 20 29.67 1005 10 16 N/A
7:55 am 07:55 Cloudy 57 14 57 14 100 100 S 12 19 29.66 1004 10 16 N/A
8:15 am 08:15 Mostly Cloudy 57 14 57 14 100 100 SSE 14 22 29.66 1004 10 16 N/A
8:35 am 08:35 Cloudy 57 14 57 14 100 100 S 13 20 29.66 1004 10 16 N/A
8:55 am 08:55 Cloudy 57 14 57 14 100 100 S 15 24 29.66 1004 10 16 N/A
9:15 am 09:15 Cloudy 57 14 57 14 100 100 SSE 15 24 29.65 1004 10 16 N/A
9:35 am 09:35 Cloudy 57 14 57 14 100 100 S 12 19 29.65 1004 5 8 N/A
9:55 am 09:55 Cloudy 57 14 57 14 100 100 WSW 16 26 29.67 1005 4 6 N/A
10:15 am 10:15 Cloudy 55 13 55 13 100 100 WSW 12 19 29.67 1005 4 6 N/A
10:35 am 10:35 Cloudy 55 13 55 13 100 100 WSW 10 17 29.66 1004 10 16 N/A
10:55 am 10:55 Cloudy 54 12 54 12 100 100 WNW 17 28 29.67 1005 10 16 N/A
11:15 am 11:15 Cloudy 52 11 52 11 100 100 W 16 26 29.70 1006 10 16 N/A
11:35 am 11:35 Cloudy 52 11 52 11 100 100 W 14 22 29.70 1006 5 8 N/A
11:55 am 11:55 Cloudy 50 10 50 10 100 100 WSW 16 26 29.70 1006 3 4 N/A
12:15 pm 12:15 Cloudy 50 10 50 10 100 100 WSW 13 20 29.71 1006 3 5 N/A
12:35 pm 12:35 Cloudy 50 10 50 10 100 100 W 12 19 29.71 1006 2 3 N/A
12:55 pm 12:55 Cloudy 50 10 50 10 100 100 WSW 7 11 29.71 1006 3 5 N/A
1:15 pm 13:15 Cloudy 50 10 50 10 100 100 WSW 9 15 29.71 1006 2 3 N/A
1:35 pm 13:35 Cloudy 50 10 50 10 100 100 WSW 12 19 29.71 1006 3 5 N/A
1:55 pm 13:55 Cloudy 50 10 50 10 100 100 WSW 13 20 29.71 1006 5 8 N/A
2:15 pm 14:15 Cloudy 52 11 52 11 100 100 WSW 12 19 29.71 1006 3 4 N/A
2:35 pm 14:35 Cloudy 52 11 52 11 100 100 WSW 13 20 29.70 1006 10 16 N/A
2:55 pm 14:55 Cloudy 52 11 52 11 100 100 W 14 22 29.71 1006 7 11 N/A
3:15 pm 15:15 Cloudy 52 11 52 11 100 100 W 13 20 29.72 1006 5 8 N/A
3:35 pm 15:35 Cloudy 54 12 54 12 100 100 W 12 19 29.71 1006 10 16 N/A
3:55 pm 15:55 Cloudy 54 12 54 12 100 100 W 10 17 29.72 1007 10 16 N/A
4:15 pm 16:15 Cloudy 54 12 54 12 100 100 W 12 19 29.73 1007 7 11 N/A
4:35 pm 16:35 Cloudy 54 12 54 12 100 100 W 9 15 29.74 1007 10 16 N/A
4:55 pm 16:55 Cloudy 54 12 54 12 100 100 W 8 13 29.75 1008 10 16 N/A
5:15 pm 17:15 Cloudy 54 12 54 12 100 100 WNW 6 9 29.76 1008 10 16 N/A
5:35 pm 17:35 Cloudy 52 11 52 11 100 100 NW 12 19 29.77 1008 3 4 N/A
5:55 pm 17:55 Cloudy 52 11 52 11 100 100 NW 15 24 29.79 1009 7 11 N/A
6:15 pm 18:15 Cloudy 50 10 50 10 100 100 NNW 17 28 29.81 1009 7 11 N/A
6:35 pm 18:35 Cloudy 50 10 50 10 100 100 NNW 16 26 29.82 1010 7 11 N/A
6:55 pm 18:55 Cloudy 48 9 48 9 100 100 NNW 16 26 29.84 1011 7 11 N/A
7:15 pm 19:15 Cloudy 48 9 48 9 100 100 NNW 21 33 29.85 1011 10 16 N/A
7:35 pm 19:35 Cloudy 48 9 48 9 100 100 NNW 14 22 29.87 1012 10 16 N/A
7:55 pm 19:55 Cloudy 48 9 48 9 100 100 N 14 22 29.87 1012 10 16 N/A
8:15 pm 20:15 Cloudy 48 9 48 9 100 100 NNW 16 26 29.89 1012 10 16 N/A
8:35 pm 20:35 Cloudy 48 9 48 9 100 100 NNW 16 26 29.91 1013 10 16 N/A
8:55 pm 20:55 Cloudy 48 9 48 9 100 100 NNW 15 24 29.93 1014 10 16 N/A
9:15 pm 21:15 Cloudy 48 9 46 8 94 94 NNW 14 22 29.93 1014 10 16 N/A
9:35 pm 21:35 Cloudy 48 9 48 9 100 100 NNW 20 31 29.94 1014 10 16 N/A
9:55 pm 21:55 Cloudy 46 8 46 8 100 100 NNW 13 20 29.96 1014 10 16 N/A
10:15 pm 22:15 Cloudy 46 8 46 8 100 100 NNW 14 22 29.98 1015 3 5 N/A
10:35 pm 22:35 Cloudy 46 8 46 8 100 100 NNW 13 20 29.98 1015 3 5 N/A
10:55 pm 22:55 Cloudy 46 8 46 8 100 100 NNW 13 20 29.98 1015 7 11 N/A
11:15 pm 23:15 Cloudy 46 8 46 8 100 100 NNW 10 17 29.99 1015 10 16 N/A
11:35 pm 23:35 Cloudy 46 8 46 8 100 100 NNW 12 19 29.98 1015 10 16 N/A
11:55 pm 23:55 Cloudy 46 8 46 8 100 100 NNW 10 17 29.98 1015 10 16 N/A

Powered by AerisWeather